Voltar ao catálogo

STARLINK-3699

AtivoComunicaçõesVLEO
NORAD 51966·PAYLOAD·🇺🇸 United States

Lançado Mar 9, 2022 de Cape Canaveral Space Force Station

Loading…

Próximas Passagens (próximas 24 horas)

TLE

AtualizadoSource: CelesTrak SupGP

Época: Sep 15, 2026, 01:26 UTC

1 51966C 22025L   26258.06020833 -.00049032  00000+0 -15754-2 0  2584
2 51966  53.1576 235.7003 0001710  76.6131 341.5588 15.31752394    14

Acompanhe STARLINK-3699 em tempo real com AllMySat

Download on the App Store